Volver al catálogo

COSMOS 839

ActivoMilitarUNKNOWN
NORAD 9011·PAYLOAD·🇷🇺 Russia

Lanzado Jul 8, 1976 desde Plesetsk Cosmodrome

Loading…

Próximos Pases (próximas 24 horas)

TLE

ActualizadoSource: Space-Track

Época: Sep 14, 2026, 00:30 UTC

1 09011U 76067A   26257.02093613 -.00000051  00000-0  16384-4 0  9996
2 09011  65.8524  92.0285 0710116 253.6203  98.5624 12.32897348271085

Sigue COSMOS 839 en tiempo real con AllMySat

Download on the App Store